Location: Tierra del Sol
(32.6128°N, 116.3319°W)
Time: 14:03:46
(UTC-07:00)

Amateur Radio Satellites - All Passes

Search period start: 05 July 2015 13:33
Search period end: 06 July 2015 13:33
Location: Tierra del Sol, 32.6128°N, 116.3319°W

Satellite Date Start Highest point End Downlink Frequencies (MHz)
Time Altitude Azimuth
ITAMSAT 1 05 Jul 13:42:48 13:47:09 28° 70° (ENE) 13:51:36 435.822/435.867
Gurwin Techsat 1B 05 Jul 13:43:08 13:47:38 30° 71° (ENE) 13:52:14 435.225
Cosmos 2491 05 Jul 13:49:27 13:54:47 19° 84° (E) 14:00:39 435.465 / 435.565
VERMONT LUNAR 05 Jul 13:51:26 13:53:01 13° 218° (SW) 13:54:31 437.305
BEESAT 05 Jul 14:13:03 14:17:43 51° 100° (E) 14:22:23 436.000
SPROUT 05 Jul 14:17:38 14:19:13 12° 291° (WNW) 14:20:34 437.525
PHONESAT 2.4 05 Jul 14:23:42 14:27:04 51° 211° (SSW) 14:30:27 2401.200-2431.200
PCSat 05 Jul 14:27:57 14:32:18 26° 108° (ESE) 14:36:47 145.827
SWISSCUBE 05 Jul 14:28:44 14:33:33 86° 99° (E) 14:38:21 437.505
ITUPSAT 1 05 Jul 14:34:37 14:39:27 88° 107° (ESE) 14:44:16 437.325
AO-7 05 Jul 14:41:34 14:48:09 28° 62° (ENE) 14:55:01 29.400- 29.500
HORYU 2 05 Jul 15:04:10 15:07:31 22° 71° (ENE) 15:10:59 437.375
ISS 05 Jul 15:06:34 15:09:48 85° 44° (NE) 15:13:01 145.825
KKS-1 05 Jul 15:08:38 15:12:32 31° 97° (E) 15:16:29 437.445
JAS-2 05 Jul 15:11:35 15:16:32 50° 73° (ENE) 15:21:41 435.910
ITAMSAT 1 05 Jul 15:22:06 15:26:35 28° 264° (W) 15:31:00 435.822/435.867
Gurwin Techsat 1B 05 Jul 15:23:04 15:27:35 27° 265° (W) 15:32:01 435.225
JUGNU 05 Jul 15:24:19 15:28:03 17° 168° (SSE) 15:31:52 437.505
YUBILEINY 05 Jul 15:27:05 15:35:36 56° 269° (W) 15:44:04 435.215
Cosmos 2491 05 Jul 15:42:04 15:50:54 73° 278° (W) 15:59:43 435.465 / 435.565
BEESAT 05 Jul 15:52:40 15:55:10 14° 292° (WNW) 15:57:25 436.000
BEESAT 3 05 Jul 15:52:45 15:56:26 34° 57° (ENE) 16:00:06 437.485
AIST 1 05 Jul 15:54:16 15:58:34 54° 279° (W) 16:02:53
STARS 05 Jul 15:57:16 16:01:38 71° 101° (E) 16:06:00 437.465
SO-50 05 Jul 16:01:42 16:06:14 54° 115° (ESE) 16:10:57 436.795
BEESAT 2 05 Jul 16:06:38 16:10:26 38° 57° (ENE) 16:14:12 435.950
O/OREOS (USA 219) 05 Jul 16:10:20 16:10:59 10° 57° (ENE) 16:11:55 437.305
PCSat 05 Jul 16:10:42 16:15:35 34° 302° (WNW) 16:20:28 145.827
SRMSAT 05 Jul 16:20:01 16:22:24 13° 164° (SSE) 16:24:54 437.500
Cosmos 2504 05 Jul 16:21:07 16:27:56 36° 77° (ENE) 16:35:20 435.465 / 435.565
AO-7 05 Jul 16:32:22 16:40:32 58° 258° (WSW) 16:48:44 29.400- 29.500
HORYU 2 05 Jul 16:40:20 16:44:03 25° 264° (W) 16:47:41 437.375
KKS-1 05 Jul 16:45:50 16:48:58 19° 290° (WNW) 16:51:58 437.445
JAS-2 05 Jul 16:59:32 17:02:12 13° 270° (W) 17:04:32 435.910
Cubesat XI-IV 05 Jul 17:03:31 17:06:06 14° 66° (ENE) 17:08:59 437.490
MOZHAYETS 4 05 Jul 17:11:00 17:15:39 75° 101° (E) 17:20:17
JUGNU 05 Jul 17:11:51 17:16:30 23° 177° (S) 17:21:09 437.505
BEESAT 3 05 Jul 17:31:46 17:34:07 15° 250° (WSW) 17:36:17 437.485
AIST 2 05 Jul 17:33:26 17:37:38 87° 62° (ENE) 17:41:45 435.215
SO-50 05 Jul 17:44:10 17:47:11 16° 312° (NW) 17:50:05 436.795
CUBESAT XI-V 05 Jul 17:44:30 17:45:16 11° 89° (E) 17:46:23 437.345
BEESAT 2 05 Jul 17:46:08 17:48:11 13° 250° (WSW) 17:50:03 435.950
O/OREOS (USA 219) 05 Jul 17:46:25 17:50:55 63° 253° (WSW) 17:55:25 437.305
Cosmos 2491 05 Jul 17:47:27 17:49:38 11° 299° (WNW) 17:50:57 435.465 / 435.565
CUTE-I 05 Jul 18:05:51 18:11:06 60° 75° (ENE) 18:16:24 437.470
SRMSAT 05 Jul 18:06:36 18:10:58 21° 173° (S) 18:15:22 437.500
Cosmos 2504 05 Jul 18:13:09 18:20:07 38° 270° (W) 18:27:23 435.465 / 435.565
Cubesat XI-IV 05 Jul 18:40:26 18:45:44 62° 259° (WSW) 18:51:04 437.490
DANDE 05 Jul 18:44:19 18:45:53 15° 75° (ENE) 18:47:31 436.750
PRISM 05 Jul 18:57:32 19:00:31 19° 94° (E) 19:03:36 437.425
BRITE-PL 05 Jul 19:00:09 19:04:13 22° 72° (ENE) 19:08:16 437.365/2234.400
JUGNU 05 Jul 19:00:33 19:04:58 21° 188° (S) 19:09:19 437.505
STRAND 1 05 Jul 19:09:00 19:13:32 32° 97° (E) 19:18:07 437.568
CUSAT 1 05 Jul 19:12:09 19:14:43 68° 263° (W) 19:17:28 437.405
CUBESAT XI-V 05 Jul 19:18:33 19:23:09 57° 285° (WNW) 19:27:41 437.345
HO-68 05 Jul 19:20:29 19:25:31 22° 64° (ENE) 19:30:49 435.675
SEEDS 05 Jul 19:47:56 19:49:44 13° 70° (ENE) 19:51:45 437.485
CUTE-I 05 Jul 19:48:58 19:51:39 13° 269° (W) 19:53:59 437.470
SRMSAT 05 Jul 19:54:58 19:59:35 23° 183° (S) 20:04:10 437.500
AAUSAT CUBESAT 2 05 Jul 19:56:54 19:57:16 10° 69° (ENE) 19:57:54 437.432
GONETS M04 05 Jul 20:03:11 20:11:42 58° 80° (E) 20:20:14
GOMX 1 05 Jul 20:05:21 20:10:30 61° 76° (ENE) 20:15:20 467.674
COMPASS 1 05 Jul 20:21:06 20:24:29 25° 73° (ENE) 20:27:58 437.405
PRISM 05 Jul 20:32:26 20:35:57 26° 288° (WNW) 20:39:23 437.425
CUTE 1.7 + AOD 2 05 Jul 20:35:06 20:39:14 64° 77° (ENE) 20:43:25 437.475
BRITE-PL 05 Jul 20:37:23 20:42:33 38° 262° (W) 20:47:24 437.365/2234.400
CANX-2 05 Jul 20:38:38 20:42:50 82° 78° (ENE) 20:47:04 2200.000
DOVE 4 05 Jul 20:42:35 20:47:33 87° 261° (W) 20:52:13 437.250
STRAND 1 05 Jul 20:48:29 20:52:36 24° 290° (WNW) 20:56:34 437.568
JUGNU 05 Jul 20:51:01 20:53:23 12° 196° (SSW) 20:55:36 437.505
FUNcube-1 05 Jul 20:54:02 20:55:32 12° 70° (ENE) 20:57:16 145.935
AUBIESAT-1 05 Jul 20:57:23 21:01:07 27° 101° (ESE) 21:05:06 437.475
HO-68 05 Jul 21:05:44 21:12:47 61° 258° (WSW) 21:19:50 435.675
UWE-3 05 Jul 21:08:32 21:12:00 25° 73° (ENE) 21:15:30 435.000/436.395/437.385
Cosmos 2499 05 Jul 21:09:14 21:16:07 32° 75° (ENE) 21:23:36 435.465 / 435.565
CINEMA 3 05 Jul 21:17:47 21:22:21 79° 259° (W) 21:26:43 145.822/145.860
SEEDS 05 Jul 21:21:16 21:25:12 40° 262° (W) 21:29:09 437.485
AAUSAT CUBESAT 2 05 Jul 21:28:27 21:32:28 50° 261° (W) 21:36:31 437.432
M-CUBED/EXP-1 PRIME 05 Jul 21:32:33 21:36:56 85° 103° (ESE) 21:41:36 437.505
DELFI C3 05 Jul 21:33:45 21:37:35 46° 75° (ENE) 21:41:28 145.870
DX 1 05 Jul 21:37:53 21:40:21 15° 69° (ENE) 21:43:00 434.975-435.025
SRMSAT 05 Jul 21:44:29 21:48:10 17° 192° (SSW) 21:51:46 437.500
GOMX 1 05 Jul 21:46:55 21:48:56 12° 269° (W) 21:50:34 467.674
ZACube-1 05 Jul 21:51:51 21:56:02 67° 77° (ENE) 22:00:11 437.345
UKube-1 05 Jul 21:55:33 21:58:52 22° 71° (ENE) 22:02:16 .
CUBEBUG 2 05 Jul 21:56:15 22:00:32 60° 260° (W) 22:04:43 437.445
COMPASS 1 05 Jul 21:57:06 22:00:09 19° 266° (W) 22:03:05 437.405
Oscar 11 05 Jul 21:57:10 22:01:22 56° 260° (W) 22:05:36 145.826/435.025
HUMSAT D 05 Jul 21:58:44 22:02:18 30° 73° (ENE) 22:05:54 437.325/437.525
GONETS M04 05 Jul 22:01:19 22:08:02 25° 275° (W) 22:14:24
AISAT 05 Jul 22:20:31 22:24:12 26° 72° (ENE) 22:27:57 437.250
ANTELSAT 05 Jul 22:27:14 22:30:26 20° 94° (E) 22:33:50 437.575/2403.000
FUNcube-1 05 Jul 22:27:32 22:31:33 43° 261° (W) 22:35:31 145.935
AUBIESAT-1 05 Jul 22:32:11 22:35:44 24° 292° (WNW) 22:39:18 437.475
CUBEBUG 1 05 Jul 22:34:07 22:37:09 19° 70° (ENE) 22:40:19 437.445
TIGRISAT 05 Jul 22:38:30 22:42:09 26° 96° (E) 22:45:58 435.000
UWE-3 05 Jul 22:45:20 22:48:32 20° 266° (W) 22:51:34 435.000/436.395/437.385
ESTCUBE 1 05 Jul 22:57:36 23:01:51 43° 74° (ENE) 23:06:10 437.505/2401.250
Cosmos 2499 05 Jul 23:01:50 23:09:24 45° 269° (W) 23:17:22 435.465 / 435.565
50 SAT 05 Jul 23:04:15 23:08:04 79° 258° (WSW) 23:11:54 437.505
QB50P2 05 Jul 23:07:17 23:10:31 22° 95° (E) 23:13:51 145.880/145.840
POPSAT HIP 1 05 Jul 23:07:39 23:10:49 21° 95° (E) 23:14:04 437.405
VELOX 1 05 Jul 23:08:23 23:12:52 86° 257° (WSW) 23:17:21 145.980
DX 1 05 Jul 23:12:13 23:16:19 38° 261° (W) 23:20:23 434.975-435.025
UNISAT 6 05 Jul 23:18:17 23:22:44 84° 102° (ESE) 23:27:16 437.425
SPROUT 05 Jul 23:29:48 23:33:00 21° 71° (ENE) 23:36:19 437.525
UKube-1 05 Jul 23:31:16 23:34:53 25° 264° (W) 23:38:25 .
HUMSAT D 05 Jul 23:35:32 23:38:07 16° 267° (W) 23:40:32 437.325/437.525
QB50P1 05 Jul 23:45:41 23:49:52 66° 101° (E) 23:54:02 145.935-145.965
AISAT 05 Jul 23:57:11 00:00:44 22° 265° (W) 00:04:10 437.250
NANOSAT C BR1 05 Jul 23:59:14 00:03:26 84° 283° (WNW) 00:07:38 145.865
ANTELSAT 06 Jul 00:03:24 00:07:14 29° 287° (WNW) 00:11:05 437.575/2403.000
TISAT 1 06 Jul 00:04:19 00:08:09 35° 74° (ENE) 00:12:02 437.305
DUCHIFAT 1 06 Jul 00:05:37 00:09:48 71° 283° (WNW) 00:13:57 145.980
CUBEBUG 1 06 Jul 00:09:20 00:13:18 31° 263° (W) 00:17:13 437.445
POLYITAN 1 06 Jul 00:12:52 00:17:00 54° 284° (WNW) 00:21:05 437.675
TIGRISAT 06 Jul 00:15:21 00:18:48 22° 288° (WNW) 00:22:12 435.000
BUGSAT 1 06 Jul 00:15:26 00:19:29 85° 283° (WNW) 00:23:29 437.445
ESTCUBE 1 06 Jul 00:36:32 00:38:58 14° 268° (W) 00:41:10 437.505/2401.250
SO-50 06 Jul 00:38:32 00:41:44 17° 48° (NE) 00:45:02 436.795
QB50P2 06 Jul 00:42:57 00:46:21 23° 288° (WNW) 00:49:39 145.880/145.840
POPSAT HIP 1 06 Jul 00:43:13 00:46:38 24° 288° (WNW) 00:49:58 437.405
PCSat 06 Jul 01:02:24 01:07:49 74° 64° (ENE) 01:13:13 145.827
SPROUT 06 Jul 01:05:21 01:08:59 25° 264° (W) 01:12:31 437.525
RS-15 06 Jul 01:14:11 01:24:18 49° 110° (ESE) 01:34:48 29.354- 29.394
BEESAT 06 Jul 01:15:15 01:19:32 35° 72° (ENE) 01:23:53 436.000
SWISSCUBE 06 Jul 01:30:40 01:35:21 58° 75° (ENE) 01:40:04 437.505
ITUPSAT 1 06 Jul 01:36:48 01:41:29 60° 75° (ENE) 01:46:14 437.325
TISAT 1 06 Jul 01:41:34 01:44:04 15° 267° (W) 01:46:21 437.305
Oscar 19 06 Jul 01:44:17 01:49:05 40° 98° (E) 01:53:55 437.125/150
Cosmos 2491 06 Jul 01:58:27 02:06:42 46° 77° (ENE) 02:14:59 435.465 / 435.565
ITAMSAT 1 06 Jul 02:01:28 02:03:58 14° 91° (E) 02:06:47 435.822/435.867
KKS-1 06 Jul 02:03:23 02:06:13 17° 70° (ENE) 02:09:12 437.445
Gurwin Techsat 1B 06 Jul 02:04:41 02:07:55 17° 92° (E) 02:11:25 435.225
AIST 1 06 Jul 02:06:46 02:10:09 22° 76° (ENE) 02:13:36
SO-50 06 Jul 02:17:50 02:22:38 52° 245° (WSW) 02:27:18 436.795
YUBILEINY 06 Jul 02:26:30 02:33:58 35° 88° (E) 02:41:39 435.215
PCSat 06 Jul 02:49:18 02:50:42 11° 256° (WSW) 02:51:42 145.827
STARS 06 Jul 02:49:51 02:53:49 34° 73° (ENE) 02:57:49 437.465
BEESAT 06 Jul 02:54:04 02:57:29 19° 266° (W) 03:00:44 436.000
SWISSCUBE 06 Jul 03:12:08 03:13:38 11° 270° (W) 03:14:47 437.505
ITUPSAT 1 06 Jul 03:18:41 03:19:51 11° 270° (W) 03:20:38 437.325
Oscar 19 06 Jul 03:24:31 03:28:11 19° 291° (WNW) 03:31:40 437.125/150
RS-15 06 Jul 03:26:39 03:36:52 42° 310° (NW) 03:47:13 29.354- 29.394
KKS-1 06 Jul 03:38:32 03:42:37 34° 262° (W) 03:46:39 437.445
ITAMSAT 1 06 Jul 03:38:47 03:43:52 54° 286° (WNW) 03:48:55 435.822/435.867
Gurwin Techsat 1B 06 Jul 03:43:05 03:48:11 47° 287° (WNW) 03:53:14 435.225
AIST 1 06 Jul 03:44:21 03:47:43 22° 270° (W) 03:50:57
Cosmos 2491 06 Jul 03:55:50 04:03:19 32° 273° (W) 04:10:31 435.465 / 435.565
JAS-2 06 Jul 04:07:45 04:14:40 76° 102° (ESE) 04:22:19 435.910
MOZHAYETS 4 06 Jul 04:08:30 04:12:45 40° 74° (ENE) 04:17:03
YUBILEINY 06 Jul 04:22:32 04:30:41 42° 284° (WNW) 04:38:43 435.215
STARS 06 Jul 04:27:33 04:30:23 16° 267° (W) 04:33:01 437.465
HORYU 2 06 Jul 04:35:02 04:39:31 85° 102° (ESE) 04:44:00 437.375
AO-7 06 Jul 04:38:53 04:47:13 67° 104° (ESE) 04:55:29 29.400- 29.500
VERMONT LUNAR 06 Jul 04:47:06 04:48:02 11° 142° (SE) 04:49:04 437.305
Cosmos 2504 06 Jul 04:47:53 04:53:20 26° 88° (E) 04:58:57 435.465 / 435.565
BEESAT 3 06 Jul 05:41:50 05:44:38 19° 111° (ESE) 05:47:36 437.485
MOZHAYETS 4 06 Jul 05:47:28 05:50:11 15° 268° (W) 05:52:41
RS-15 06 Jul 05:49:32 05:53:45 12° 341° (NNW) 05:57:33 29.354- 29.394
JAS-2 06 Jul 05:54:49 05:59:18 18° 293° (WNW) 06:03:38 435.910
BEESAT 2 06 Jul 05:56:26 05:59:32 22° 111° (ESE) 06:02:45 435.950
ISS 06 Jul 06:06:39 06:09:10 21° 129° (SE) 06:11:44 145.825
O/OREOS (USA 219) 06 Jul 06:15:44 06:19:20 25° 103° (ESE) 06:23:01 437.305
CUBESAT XI-V 06 Jul 06:16:54 06:21:36 81° 78° (ENE) 06:26:21 437.345
STRAND 1 06 Jul 06:20:35 06:24:57 30° 71° (ENE) 06:29:26 437.568
VERMONT LUNAR 06 Jul 06:21:31 06:24:37 90° 172° (S) 06:27:44 437.305
CUTE-I 06 Jul 06:27:55 06:32:45 34° 97° (E) 06:37:36 437.470
CUSAT 1 06 Jul 06:31:42 06:35:42 18° 95° (E) 06:39:27 437.405
AO-7 06 Jul 06:33:01 06:39:25 24° 299° (WNW) 06:45:28 29.400- 29.500
Cosmos 2504 06 Jul 06:38:47 06:45:18 40° 282° (WNW) 06:51:41 435.465 / 435.565
Cubesat XI-IV 06 Jul 07:02:19 07:07:42 79° 102° (ESE) 07:13:03 437.490
PHONESAT 2.4 06 Jul 07:06:51 07:09:55 32° 146° (SE) 07:13:02 2401.200-2431.200
GONETS M04 06 Jul 07:10:08 07:10:55 10° 80° (E) 07:12:39
PRISM 06 Jul 07:17:03 07:21:11 66° 258° (WSW) 07:25:22 437.425
BEESAT 3 06 Jul 07:18:51 07:22:25 28° 305° (NW) 07:25:58 437.485
AIST 2 06 Jul 07:26:45 07:30:53 55° 115° (ESE) 07:35:05 435.215
BEESAT 2 06 Jul 07:34:01 07:37:29 25° 305° (NW) 07:40:55 435.950
ISS 06 Jul 07:42:42 07:45:29 25° 323° (NW) 07:48:15 145.825
AUBIESAT-1 06 Jul 07:43:25 07:44:40 12° 65° (ENE) 07:46:07 437.475
DANDE 06 Jul 07:46:03 07:53:30 69° 97° (E) 07:59:17 436.750
O/OREOS (USA 219) 06 Jul 07:55:07 07:58:43 23° 297° (WNW) 08:02:13 437.305
VERMONT LUNAR 06 Jul 07:59:11 08:01:46 23° 348° (NNW) 08:04:21 437.305
STRAND 1 06 Jul 07:59:51 08:04:09 26° 265° (W) 08:08:20 437.568
CUTE-I 06 Jul 08:08:23 08:12:40 24° 291° (WNW) 08:16:48 437.470
RS-15 06 Jul 08:09:56 08:13:41 12° 19° (NNE) 08:17:59 29.354- 29.394
CUSAT 1 06 Jul 08:11:49 08:18:20 50° 279° (W) 08:23:19 437.405
GOMX 1 06 Jul 08:12:54 08:16:00 21° 95° (E) 08:19:13 467.674
M-CUBED/EXP-1 PRIME 06 Jul 08:17:39 08:20:47 44° 71° (ENE) 08:24:02 437.505
CUTE 1.7 + AOD 2 06 Jul 08:26:00 08:28:34 16° 93° (E) 08:31:19 437.475
CANX-2 06 Jul 08:29:14 08:32:20 20° 94° (E) 08:35:33 2200.000
HO-68 06 Jul 08:38:44 08:45:02 34° 97° (E) 08:51:27 435.675
PHONESAT 2.4 06 Jul 08:44:35 08:47:53 43° 340° (NNW) 08:51:11 2401.200-2431.200
Cubesat XI-IV 06 Jul 08:45:45 08:47:13 11° 295° (WNW) 08:48:19 437.490
DOVE 4 06 Jul 08:46:38 08:50:20 31° 97° (E) 08:54:08 437.250
BRITE-PL 06 Jul 08:47:07 08:51:20 75° 284° (WNW) 08:55:27 437.365/2234.400
GONETS M04 06 Jul 08:57:53 09:06:39 77° 94° (E) 09:15:25
AIST 2 06 Jul 09:07:52 09:09:52 13° 312° (NW) 09:11:40 435.215
SEEDS 06 Jul 09:09:47 09:13:51 44° 99° (E) 09:17:57 437.485
AAUSAT CUBESAT 2 06 Jul 09:15:54 09:19:42 33° 97° (E) 09:23:33 437.432
AUBIESAT-1 06 Jul 09:16:23 09:19:13 26° 259° (WSW) 09:22:06 437.475
CINEMA 3 06 Jul 09:17:16 09:21:00 31° 97° (E) 09:24:53 145.822/145.860
DANDE 06 Jul 09:32:34 09:36:45 16° 286° (WNW) 09:40:04 436.750
TIGRISAT 06 Jul 09:34:46 09:36:40 13° 69° (ENE) 09:38:48 435.000
VERMONT LUNAR 06 Jul 09:36:56 09:39:17 19° 5° (N) 09:41:39 437.305
Cosmos 2499 06 Jul 09:42:20 09:47:39 24° 87° (E) 09:53:14 435.465 / 435.565
COMPASS 1 06 Jul 09:43:29 09:47:45 87° 283° (WNW) 09:51:59 437.405
ZACube-1 06 Jul 09:45:41 09:48:32 18° 94° (E) 09:51:35 437.345
Oscar 11 06 Jul 09:49:04 09:53:03 35° 97° (E) 09:57:04 145.826/435.025
GOMX 1 06 Jul 09:50:51 09:54:08 22° 288° (WNW) 09:57:19 467.674
CUBEBUG 2 06 Jul 09:51:38 09:55:33 36° 98° (E) 09:59:37 437.445
CUTE 1.7 + AOD 2 06 Jul 10:00:43 10:04:35 33° 286° (WNW) 10:08:24 437.475
CANX-2 06 Jul 10:04:37 10:08:15 27° 287° (WNW) 10:11:50 2200.000
UNISAT 6 06 Jul 10:13:09 10:17:09 40° 74° (ENE) 10:21:10 437.425
FUNcube-1 06 Jul 10:19:53 10:23:59 46° 99° (E) 10:28:10 145.935
RS-15 06 Jul 10:20:10 10:30:54 40° 49° (NE) 10:42:11 29.354- 29.394
PHONESAT 2.4 06 Jul 10:23:40 10:26:24 21° 357° (N) 10:29:08 2401.200-2431.200
DOVE 4 06 Jul 10:25:24 10:27:55 15° 289° (WNW) 10:30:18 437.250
HO-68 06 Jul 10:26:16 10:32:46 38° 292° (WNW) 10:39:11 435.675
QB50P1 06 Jul 10:34:19 10:37:52 27° 73° (ENE) 10:41:29 145.935-145.965
UWE-3 06 Jul 10:38:02 10:42:17 75° 283° (WNW) 10:46:38 435.000/436.395/437.385
50 SAT 06 Jul 10:45:24 10:47:49 16° 94° (E) 10:50:23 437.505
NANOSAT C BR1 06 Jul 10:47:16 10:51:11 38° 74° (ENE) 10:55:08 145.865
SEEDS 06 Jul 10:47:24 10:49:18 12° 291° (WNW) 10:50:58 437.485
DELFI C3 06 Jul 10:52:01 10:55:59 51° 284° (WNW) 10:59:55 145.870
AAUSAT CUBESAT 2 06 Jul 10:52:27 10:55:03 16° 290° (WNW) 10:57:29 437.432
DUCHIFAT 1 06 Jul 10:53:20 10:57:21 44° 75° (ENE) 11:01:23 145.980
CINEMA 3 06 Jul 10:55:19 10:58:02 16° 289° (WNW) 11:00:37 145.822/145.860
ESTCUBE 1 06 Jul 10:56:37 10:58:34 13° 91° (E) 11:00:46 437.505/2401.250
ANTELSAT 06 Jul 10:57:31 11:01:43 54° 260° (W) 11:05:54 437.575/2403.000
GONETS M04 06 Jul 10:58:39 11:04:34 18° 293° (WNW) 11:09:56
BUGSAT 1 06 Jul 11:00:56 11:04:45 35° 74° (ENE) 11:08:36 437.445
POLYITAN 1 06 Jul 11:01:02 11:05:13 60° 76° (ENE) 11:09:24 437.675
VELOX 1 06 Jul 11:04:02 11:07:37 25° 96° (E) 11:11:16 145.980
DX 1 06 Jul 11:04:46 11:08:59 50° 100° (E) 11:13:11 434.975-435.025
TIGRISAT 06 Jul 11:09:04 11:13:08 40° 261° (W) 11:17:09 435.000
VERMONT LUNAR 06 Jul 11:13:36 11:16:38 46° 22° (NNE) 11:19:41 437.305
ZACube-1 06 Jul 11:21:13 11:24:56 29° 287° (WNW) 11:28:40 437.345
HUMSAT D 06 Jul 11:21:56 11:26:06 72° 283° (WNW) 11:30:19 437.325/437.525
UKube-1 06 Jul 11:22:18 11:26:37 77° 101° (E) 11:30:55 .
Oscar 11 06 Jul 11:26:16 11:28:58 16° 290° (WNW) 11:31:30 145.826/435.025
CUBEBUG 2 06 Jul 11:29:32 11:32:01 15° 289° (WNW) 11:34:20 437.445
QB50P2 06 Jul 11:30:24 11:34:35 56° 260° (W) 11:38:46 145.880/145.840
POPSAT HIP 1 06 Jul 11:30:33 11:34:44 58° 260° (W) 11:38:55 437.405
Cosmos 2499 06 Jul 11:33:46 11:40:28 44° 282° (WNW) 11:47:10 435.465 / 435.565
AISAT 06 Jul 11:51:12 11:55:37 82° 281° (WNW) 12:00:00 437.250
UNISAT 6 06 Jul 11:52:09 11:54:09 13° 268° (W) 11:55:56 437.425
FUNcube-1 06 Jul 11:58:14 11:59:59 12° 290° (WNW) 12:01:30 145.935
PHONESAT 2.4 06 Jul 12:01:59 12:05:02 29° 14° (NNE) 12:08:06 2401.200-2431.200
CUBEBUG 1 06 Jul 12:02:10 12:06:30 68° 101° (E) 12:10:47 437.445
QB50P1 06 Jul 12:10:39 12:13:45 19° 266° (W) 12:16:42 145.935-145.965
50 SAT 06 Jul 12:19:07 12:22:28 27° 287° (WNW) 12:25:46 437.505
NANOSAT C BR1 06 Jul 12:25:03 12:27:12 13° 268° (W) 12:29:08 145.865
ESTCUBE 1 06 Jul 12:31:23 12:35:44 45° 286° (WNW) 12:40:00 437.505/2401.250
DUCHIFAT 1 06 Jul 12:31:59 12:33:26 11° 269° (W) 12:34:36 145.980
RS-15 06 Jul 12:32:21 12:43:52 57° 248° (WSW) 12:55:35 29.354- 29.394
BUGSAT 1 06 Jul 12:37:53 12:40:21 15° 267° (W) 12:42:36 437.445
VELOX 1 06 Jul 12:40:35 12:44:05 23° 289° (WNW) 12:47:26 145.980
DX 1 06 Jul 12:43:17 12:44:50 11° 292° (WNW) 12:46:08 434.975-435.025
YUBILEINY 06 Jul 12:44:57 12:47:39 12° 63° (ENE) 12:51:11 435.215
VERMONT LUNAR 06 Jul 12:50:47 12:53:25 24° 215° (SW) 12:56:03 437.305
SPROUT 06 Jul 12:55:37 12:59:54 78° 101° (ESE) 13:04:09 437.525
Oscar 19 06 Jul 12:56:47 13:01:27 37° 72° (ENE) 13:06:10 437.125/150
ITAMSAT 1 06 Jul 13:15:28 13:18:08 15° 67° (ENE) 13:21:04 435.822/435.867
Gurwin Techsat 1B 06 Jul 13:21:39 13:25:04 18° 68° (ENE) 13:28:41 435.225
BEESAT 06 Jul 13:21:43 13:23:44 13° 91° (E) 13:26:02 436.000
